SPAKA EPDE-EPDE

Flight info

Callsign SPAKA
Flight time 0h 56m
Altitude 2500
Route STAY01/0015 EPDES EPDEG EPDEP EPRAZ EPRAH AEPRA STAY02/0015 EPRAH EPRAZ EPDEP EPDEG EPDES
Aircraft DA40/L-S/L

Departure

Time 2026-05-04 10:32
Airport Deblin Military Air Base (EPDE)

Arrival

Time 2026-05-04 11:29
Airport Deblin Military Air Base (EPDE)
Time Latitude Longitude Altitude Speed Heading
2026-05-04 10:26 51.55402 21.87583 378 ft 0 kts 352°
2026-05-04 10:28 51.55404 21.87583 378 ft 3 kts 353°
2026-05-04 10:28 51.55421 21.87609 377 ft 7 kts 84°
2026-05-04 10:28 51.55464 21.87706 378 ft 15 kts 15°
2026-05-04 10:29 51.55544 21.87737 378 ft 6 kts 12°
2026-05-04 10:29 51.55546 21.87738 378 ft 0 kts 14°
2026-05-04 10:30 51.55553 21.87741 378 ft 7 kts 17°
2026-05-04 10:31 51.55613 21.87832 380 ft 18 kts 95°
2026-05-04 10:31 51.55516 21.88109 378 ft 47 kts 120°
2026-05-04 10:32 51.55223 21.92843 1101 ft 113 kts 22°
2026-05-04 10:33 51.55916 21.92644 1220 ft 102 kts 305°
2026-05-04 10:33 51.56391 21.91702 1254 ft 112 kts 302°
2026-05-04 10:33 51.56869 21.90725 1490 ft 110 kts 302°
2026-05-04 10:33 51.57331 21.89746 1591 ft 111 kts 300°
2026-05-04 10:34 51.57748 21.88637 1546 ft 121 kts 296°
2026-05-04 10:34 51.58173 21.87441 1488 ft 118 kts 294°
2026-05-04 10:34 51.58327 21.86444 1422 ft 77 kts 242°
2026-05-04 10:34 51.57925 21.85903 1254 ft 74 kts 216°
2026-05-04 10:35 51.57465 21.85506 1117 ft 78 kts 209°
2026-05-04 10:35 51.56945 21.85228 1069 ft 84 kts 184°
2026-05-04 10:35 51.56429 21.85710 941 ft 92 kts 141°
2026-05-04 10:35 51.56090 21.86590 677 ft 90 kts 129°
2026-05-04 10:36 51.55787 21.87410 488 ft 82 kts 129°
2026-05-04 10:36 51.55498 21.88189 381 ft 75 kts 128°
2026-05-04 10:36 51.55247 21.88887 460 ft 76 kts 127°
2026-05-04 10:36 51.54992 21.89645 643 ft 75 kts 134°
2026-05-04 10:37 51.54687 21.90353 726 ft 79 kts 130°
2026-05-04 10:37 51.54403 21.91104 861 ft 79 kts 120°
2026-05-04 10:37 51.54629 21.91922 1043 ft 98 kts 33°
2026-05-04 10:37 51.55216 21.92548 1222 ft 109 kts 28°
2026-05-04 10:39 51.57923 21.88089 1276 ft 101 kts 294°
2026-05-04 10:39 51.58236 21.87097 1186 ft 93 kts 272°
2026-05-04 10:39 51.58019 21.86238 1027 ft 90 kts 215°
2026-05-04 10:40 51.57480 21.85752 970 ft 88 kts 211°
2026-05-04 10:40 51.56922 21.85403 991 ft 88 kts 184°
2026-05-04 10:40 51.56337 21.86058 827 ft 123 kts 135°
2026-05-04 10:40 51.55867 21.87223 581 ft 117 kts 128°
2026-05-04 10:41 51.55479 21.88259 405 ft 98 kts 131°
2026-05-04 10:41 51.55183 21.89057 393 ft 76 kts 125°
2026-05-04 10:41 51.54916 21.89845 571 ft 82 kts 127°
2026-05-04 10:41 51.54660 21.90656 756 ft 82 kts 127°
2026-05-04 10:42 51.54377 21.91457 1008 ft 81 kts 140°
2026-05-04 10:42 51.53899 21.91770 1298 ft 70 kts 184°
2026-05-04 10:42 51.53482 21.91497 1473 ft 65 kts 231°
2026-05-04 10:42 51.53288 21.90875 1715 ft 61 kts 243°
2026-05-04 10:43 51.53117 21.90245 1928 ft 62 kts 244°
2026-05-04 10:44 51.50336 21.86447 2478 ft 127 kts 156°
2026-05-04 10:45 51.49619 21.87291 2479 ft 129 kts 147°
2026-05-04 10:45 51.48974 21.88300 2475 ft 134 kts 140°
2026-05-04 10:45 51.48338 21.89409 2472 ft 134 kts 143°
2026-05-04 10:45 51.47551 21.90047 2487 ft 126 kts 175°
2026-05-04 10:46 51.46708 21.90297 2471 ft 119 kts 178°
2026-05-04 10:46 51.45898 21.90364 2482 ft 118 kts 186°
2026-05-04 10:46 51.45058 21.90377 2477 ft 122 kts 188°
2026-05-04 10:46 51.44228 21.90376 2476 ft 116 kts 184°
2026-05-04 10:47 51.43397 21.90566 2502 ft 123 kts 174°
2026-05-04 10:47 51.42570 21.91043 2474 ft 125 kts 166°
2026-05-04 10:47 51.41783 21.91579 2485 ft 124 kts 159°
2026-05-04 10:47 51.41012 21.92208 2489 ft 125 kts 163°
2026-05-04 10:49 51.38462 21.85451 2486 ft 116 kts 262°
2026-05-04 10:49 51.38393 21.84147 2469 ft 121 kts 260°
2026-05-04 10:50 51.38283 21.82821 2475 ft 118 kts 261°
2026-05-04 10:51 51.37791 21.73393 2473 ft 118 kts 262°
2026-05-04 10:52 51.37731 21.72089 2483 ft 117 kts 260°
2026-05-04 10:52 51.37641 21.70773 2435 ft 121 kts 259°
2026-05-04 10:52 51.37543 21.69478 2479 ft 117 kts 258°
2026-05-04 10:54 51.36653 21.60645 2477 ft 118 kts 256°
2026-05-04 10:54 51.36456 21.59341 2477 ft 122 kts 253°
2026-05-04 10:56 51.34936 21.50640 2491 ft 117 kts 252°
2026-05-04 10:56 51.34721 21.49397 2480 ft 112 kts 253°
2026-05-04 10:56 51.34500 21.48222 2492 ft 108 kts 252°
2026-05-04 10:57 51.34278 21.47078 2495 ft 108 kts 252°
2026-05-04 10:57 51.34059 21.45917 2491 ft 111 kts 252°
2026-05-04 10:57 51.33828 21.44727 2492 ft 112 kts 252°
2026-05-04 10:57 51.33587 21.43549 2482 ft 111 kts 251°
2026-05-04 10:58 51.33339 21.42403 2492 ft 108 kts 250°
2026-05-04 10:58 51.33124 21.41251 2495 ft 109 kts 252°
2026-05-04 10:58 51.32895 21.40088 2492 ft 111 kts 251°
2026-05-04 10:58 51.32676 21.38898 2487 ft 114 kts 252°
2026-05-04 10:59 51.32432 21.37690 2470 ft 116 kts 250°
2026-05-04 10:59 51.32217 21.36455 2474 ft 115 kts 253°
2026-05-04 10:59 51.32003 21.35216 2477 ft 113 kts 251°
2026-05-04 10:59 51.31782 21.34002 2484 ft 115 kts 252°
2026-05-04 11:00 51.31552 21.32756 2334 ft 123 kts 252°
2026-05-04 11:01 51.29831 21.24595 1703 ft 118 kts 276°
2026-05-04 11:02 51.30322 21.23523 1610 ft 127 kts 323°
2026-05-04 11:02 51.31186 21.23110 1480 ft 129 kts 342°
2026-05-04 11:05 51.38073 21.36905 1675 ft 156 kts 54°
2026-05-04 11:06 51.38583 21.37660 1709 ft 148 kts 27°
2026-05-04 11:06 51.39498 21.38395 1729 ft 147 kts 21°
2026-05-04 11:06 51.40465 21.38829 1761 ft 143 kts 354°
2026-05-04 11:06 51.41418 21.38587 1748 ft 135 kts 331°
2026-05-04 11:08 51.40426 21.30432 1562 ft 120 kts 255°
2026-05-04 11:10 51.39273 21.23525 688 ft 69 kts 252°
2026-05-04 11:12 51.37587 21.20225 1456 ft 91 kts 166°
2026-05-04 11:12 51.36991 21.20684 1478 ft 97 kts 165°
2026-05-04 11:12 51.36381 21.21230 1474 ft 104 kts 158°
2026-05-04 11:12 51.35761 21.21901 1442 ft 110 kts 156°
2026-05-04 11:13 51.35115 21.22477 1472 ft 107 kts 162°
2026-05-04 11:13 51.34441 21.22991 1481 ft 109 kts 167°
2026-05-04 11:13 51.33719 21.23408 1454 ft 111 kts 168°
2026-05-04 11:13 51.32976 21.23777 1456 ft 114 kts 170°
2026-05-04 11:14 51.32718 21.23882 1466 ft 111 kts 170°
2026-05-04 11:14 51.31238 21.24550 1663 ft 109 kts 174°
2026-05-04 11:16 51.30698 21.33331 2453 ft 152 kts 67°
2026-05-04 11:16 51.31108 21.34898 2474 ft 153 kts 70°
2026-05-04 11:16 51.31500 21.36461 2474 ft 151 kts 69°
2026-05-04 11:17 51.31888 21.37988 2488 ft 144 kts 69°
2026-05-04 11:17 51.32253 21.39512 2474 ft 152 kts 71°
2026-05-04 11:19 51.34953 21.50650 2471 ft 156 kts 69°
2026-05-04 11:19 51.35363 21.52268 2469 ft 155 kts 71°
2026-05-04 11:19 51.35757 21.53894 2459 ft 157 kts 70°
2026-05-04 11:19 51.36162 21.55491 2473 ft 155 kts 68°
2026-05-04 11:20 51.36616 21.57067 2476 ft 157 kts 65°
2026-05-04 11:20 51.37111 21.58626 2476 ft 158 kts 64°
2026-05-04 11:20 51.37594 21.60182 2484 ft 154 kts 63°
2026-05-04 11:20 51.38062 21.61726 2461 ft 154 kts 64°
2026-05-04 11:22 51.41802 21.71834 2448 ft 157 kts 57°
2026-05-04 11:22 51.42354 21.73325 2479 ft 152 kts 62°
2026-05-04 11:23 51.42902 21.74807 2472 ft 156 kts 62°
2026-05-04 11:23 51.43448 21.76286 2459 ft 158 kts 57°
2026-05-04 11:24 51.46510 21.84742 2507 ft 146 kts 58°
2026-05-04 11:25 51.47054 21.86187 2392 ft 152 kts 61°
2026-05-04 11:25 51.47542 21.87729 2256 ft 155 kts 67°
2026-05-04 11:25 51.48119 21.89209 1975 ft 159 kts 52°
2026-05-04 11:26 51.49990 21.90363 1480 ft 147 kts 345°
2026-05-04 11:27 51.52455 21.92399 1276 ft 123 kts 94°
2026-05-04 11:28 51.52942 21.93475 1141 ft 122 kts
2026-05-04 11:28 51.53641 21.93042 927 ft 100 kts 309°
2026-05-04 11:28 51.54014 21.92239 692 ft 85 kts 295°
2026-05-04 11:28 51.54256 21.91510 548 ft 71 kts 293°
2026-05-04 11:29 51.54515 21.90808 426 ft 74 kts 293°
2026-05-04 11:29 51.54755 21.90165 378 ft 47 kts 297°
2026-05-04 11:29 51.54856 21.89893 378 ft 20 kts 302°
2026-05-04 11:29 51.54902 21.89767 377 ft 10 kts 300°
2026-05-04 11:31 51.55544 21.88031 379 ft 28 kts 295°
2026-05-04 11:33 51.55404 21.87589 378 ft 0 kts 193°
2026-05-04 11:35 51.55407 21.87562 378 ft 5 kts 16°
2026-05-04 11:35 51.55397 21.87564 378 ft 5 kts 301°
2026-05-04 11:35 51.55407 21.87562 378 ft 0 kts 83°
2026-05-04 11:35 51.55403 21.87578 378 ft 1 kts 177°
2026-05-04 11:36 51.55406 21.87586 378 ft 2 kts 255°
2026-05-04 11:36 51.55401 21.87600 378 ft 4 kts 20°
2026-05-04 11:36 51.55401 21.87589 378 ft 0 kts 156°
2026-05-04 11:36 51.55399 21.87581 378 ft 0 kts 15°
2026-05-04 11:37 51.55403 21.87582 378 ft 0 kts 354°